Stations météo

réclame
Mon MeteoGroup
Aurillac, France (7549): Température de l'air & dewpoint: 14.10.2018 21:00:00 - 20.10.2018 21:00:00 (CEST)Aurillac, France (7549): Température de l'air 5cm: 14.10.2018 21:00:00 - 20.10.2018 21:00:00 (CEST)Aurillac, France (7549): Température de l'air -20cm & Température de l'air -100cm: 14.10.2018 21:00:00 - 20.10.2018 21:00:00 (CEST)Aurillac, France (7549): Vitesse du vent & gusts: 14.10.2018 21:00:00 - 20.10.2018 21:00:00 (CEST)Aurillac, France (7549): Direction du vent: 14.10.2018 21:00:00 - 20.10.2018 21:00:00 (CEST)Aurillac, France (7549): reduced air pressure: 14.10.2018 21:00:00 - 20.10.2018 21:00:00 (CEST)Aurillac, France (7549): visibility: 14.10.2018 21:00:00 - 20.10.2018 21:00:00 (CEST)Aurillac, France (7549): Ensoleillement: 14.10.2018 21:00:00 - 20.10.2018 21:00:00 (CEST)Aurillac, France (7549): Quantités de précipitations: 14.10.2018 21:00:00 - 20.10.2018 21:00:00 (CEST)
Date & Time tt [°C] td [°C] tt 5cm [°C] tt -20cm [°C] tt -100cm [°C] ff [km/h] ff [knt] fx [km/h] fx [knt] dd ppp [hPa] vv [km] sd [min] rr [mm]
20.10.2018 21:00:00 13,5 5,6 7,0 15,3 15,6 7 4 9 5 ENE 1025,0 20 0 0,0
20.10.2018 20:00:00 16,3 4,6 10,4 15,2 15,6 5 3 11 6 ESE 1024,1 20 0 0,0
20.10.2018 19:00:00 18,9 3,5 12,4 15,2 15,6 0 0 13 7 N 1022,9 15 34 0,0
20.10.2018 18:00:00 23,4 6,2 25,9 15,0 15,6 2 1 11 6 WNW 1021,0 48 60 0,0
20.10.2018 17:00:00 23,3 7,8 27,0 15,0 15,6 7 4 13 7 NW 1021,1 37 60 0,0
20.10.2018 16:00:00 23,3 6,5 27,6 14,9 15,6 7 4 21 11 E 1021,2 6 60 0,0
20.10.2018 15:00:00 22,7 7,6 26,3 14,9 15,6 16 9 27 15 SSE 1021,5 18 60 0,0
20.10.2018 14:00:00 21,7 9,6 26,0 14,9 15,6 14 8 28 15 SE 1022,1 20 60 0,0
20.10.2018 13:00:00 21,2 7,4 25,5 15,0 15,6 15 8 23 12 ESE 1022,8 20 60 0,0
20.10.2018 12:00:00 19,9 8,2 21,6 15,1 15,6 8 5 16 9 SE 1023,3 19 60 0,0
20.10.2018 11:00:00 16,8 9,2 17,8 15,1 15,6 9 5 16 9 ESE 1023,8 19 60 0,0
20.10.2018 10:00:00 12,5 8,6 10,2 15,2 15,6 5 3 9 5 E 1024,8 17 60 0,0
20.10.2018 09:00:00 9,2 7,8 3,3 15,3 15,6 4 2 6 4 ESE 1025,0 11 8 0,0
20.10.2018 08:00:00 7,7 6,6 3,7 15,3 15,6 3 1 4 2 ESE 1024,7 12 0 0,0
20.10.2018 07:00:00 8,0 6,6 4,9 15,4 15,6 0 0 9 5 N 1024,3 12 0 0,0
20.10.2018 06:00:00 8,5 7,1 5,2 15,4 15,6 7 4 9 5 ESE 1023,6 13 0 0,0
20.10.2018 05:00:00 10,0 8,3 5,4 15,5 15,6 6 4 9 5 NE 1023,0 20 0 0,0
20.10.2018 04:00:00 9,5 7,4 6,7 15,5 15,6 4 2 13 7 E 1022,9 17 0 0,0
20.10.2018 03:00:00 10,2 8,0 7,1 15,5 15,6 6 4 11 6 ESE 1022,4 16 0 0,0
20.10.2018 02:00:00 10,4 8,3 7,5 15,6 15,6 8 4 15 8 E 1022,6 17 0 0,0
20.10.2018 01:00:00 10,2 8,8 7,9 15,6 15,6 10 5 12 6 E 1022,5 15 0 0,0
20.10.2018 00:00:00 10,7 8,5 7,4 15,6 15,6 7 4 8 5 E 1022,7 15 0 0,0
19.10.2018 23:00:00 10,8 8,7 7,8 15,5 15,6 5 3 8 4 ESE 1022,3 15 0 0,0
19.10.2018 22:00:00 13,3 9,5 9,1 15,5 15,6 7 4 14 7 E 1021,2 19 0 0,0
19.10.2018 21:00:00 14,8 10,2 10,4 15,4 15,6 4 2 7 4 ENE 1020,3 27 0 0,0
19.10.2018 20:00:00 16,5 10,1 11,6 15,3 15,6 5 3 7 4 WNW 1019,2 33 0 0,0
19.10.2018 19:00:00 18,9 9,9 15,2 15,2 15,6 4 2 9 5 WNW 1017,8 35 36 0,0
19.10.2018 18:00:00 21,8 9,0 24,2 15,1 15,6 4 2 8 5 WNW 1016,6 45 60 0,0
19.10.2018 17:00:00 22,1 8,2 26,4 15,0 15,6 4 2 13 7 WNW 1016,4 20 60 0,0
19.10.2018 16:00:00 22,3 8,8 27,9 15,0 15,6 6 4 13 7 WSW 1016,5 20 60 0,0
19.10.2018 15:00:00 22,0 9,2 27,3 15,0 15,6 9 5 16 9 WSW 1016,6 19 60 0,0
19.10.2018 14:00:00 21,5 8,0 26,5 15,0 15,6 11 6 20 11 SW 1017,2 18 60 0,0
19.10.2018 13:00:00 20,7 8,3 25,6 15,0 15,6 13 7 22 12 SSE 1017,4 19 60 0,0
19.10.2018 12:00:00 19,6 8,9 24,4 15,1 15,6 6 3 11 6 SE 1017,5 19 60 0,0
19.10.2018 11:00:00 17,2 9,6 17,0 15,2 15,7 3 2 9 5 SE 1017,8 33 60 0,0
19.10.2018 10:00:00 12,9 8,0 9,8 15,3 15,7 7 4 10 6 ESE 1018,5 19 60 0,0
19.10.2018 09:00:00 8,4 7,0 3,8 15,3 15,7 8 4 9 5 ESE 1019,4 11 10 0,0
19.10.2018 08:00:00 6,6 5,1 3,7 15,4 15,6 6 3 8 4 ESE 1019,6 7 0 0,0
19.10.2018 07:00:00 8,4 6,2 3,7 15,4 15,7 3 2 8 4 NE 1019,1 34 0 0,0
19.10.2018 06:00:00 7,8 5,6 3,7 15,5 15,7 5 3 6 4 NE 1019,3 20 0 0,0
19.10.2018 05:00:00 8,6 5,9 5,1 15,6 15,6 3 1 9 5 NE 1018,6 22 0 0,0
19.10.2018 04:00:00 8,0 6,3 5,4 15,6 15,6 7 4 10 6 E 1018,5 10 0 0,0
19.10.2018 03:00:00 8,2 6,8 5,0 15,6 15,6 7 4 10 5 E 1018,5 10 0 0,0
19.10.2018 02:00:00 9,9 8,0 5,1 15,7 15,7 5 3 8 4 NE 1018,0 18 0 0,0
19.10.2018 01:00:00 9,5 7,6 5,2 15,7 15,7 5 3 6 4 SE 1017,9 16 0 0,0
19.10.2018 00:00:00 10,9 8,3 6,0 15,7 15,7 3 1 6 3 SE 1017,7 19 0 0,0
18.10.2018 23:00:00 12,2 8,7 8,1 15,6 15,7 5 3 12 6 E 1017,1 19 0 0,0
18.10.2018 22:00:00 13,4 9,3 9,9 15,6 15,7 9 5 13 7 ESE 1016,7 20 0 0,0
18.10.2018 21:00:00 13,9 9,9 10,6 15,6 15,7 8 4 12 7 ESE 1016,4 29 0 0,0
18.10.2018 20:00:00 15,0 10,4 11,6 15,5 15,7 8 4 10 5 SE 1015,8 20 0 0,0
18.10.2018 19:00:00 17,8 9,2 14,9 15,4 15,7 3 1 8 4 SW 1014,5 19 38 0,0
18.10.2018 18:00:00 19,6 9,8 19,8 15,3 15,7 7 4 13 7 WNW 1013,7 34 2 0,0
18.10.2018 17:00:00 20,7 8,3 22,1 15,2 15,7 7 4 13 7 W 1013,3 44 7 0,0
18.10.2018 16:00:00 21,6 7,8 25,3 15,2 15,7 6 3 14 8 W 1013,1 20 60 0,0
18.10.2018 15:00:00 21,5 6,2 24,9 15,2 15,7 4 2 15 8 NW 1013,3 19 56 0,0
18.10.2018 14:00:00 20,2 7,2 22,2 15,2 15,7 9 5 13 7 NW 1014,0 17 56 0,0
18.10.2018 13:00:00 18,6 10,2 21,6 15,2 15,7 6 4 9 5 NW 1014,9 20 12 0,0
18.10.2018 12:00:00 17,9 10,5 17,4 15,2 15,7 4 2 7 4 W 1015,3 18 23 0,0
18.10.2018 11:00:00 16,8 9,2 16,0 15,2 15,7 0 0 6 3 N 1015,6 19 10 0,0
18.10.2018 10:00:00 14,0 11,2 12,5 15,2 15,7 3 1 10 5 NW 1016,2 16 0 0,0
18.10.2018 09:00:00 11,8 10,5 10,3 15,3 15,7 4 2 9 5 ENE 1016,4 13 0 0,0
18.10.2018 08:00:00 11,4 10,0 10,3 15,3 15,7 6 3 10 5 E 1015,9 14 0 0,0
18.10.2018 07:00:00 11,6 10,0 10,7 15,3 15,7 0 0 4 2 N 1015,8 14 0 0,0
18.10.2018 06:00:00 11,8 10,0 10,7 15,4 15,7 0 0 6 3 N 1015,8 16 0 0,0
18.10.2018 05:00:00 11,6 9,8 10,5 15,4 15,7 2 1 7 4 ENE 1015,8 13 0 0,0
18.10.2018 04:00:00 11,6 9,8 10,7 15,4 15,7 3 1 9 5 ESE 1016,2 13 0 0,0
18.10.2018 03:00:00 11,5 10,1 10,6 15,4 15,7 7 4 9 5 ESE 1016,6 13 0 0,0
18.10.2018 02:00:00 11,9 10,5 10,5 15,4 15,7 4 2 8 5 ENE 1017,0 13 0 0,0
18.10.2018 01:00:00 11,7 10,4 9,1 15,4 15,7 5 3 9 5 E 1017,1 10 0 0,0
18.10.2018 00:00:00 12,6 10,1 9,4 15,4 15,7 3 2 8 4 E 1016,8 12 0 0,0
17.10.2018 23:00:00 13,7 11,4 11,1 15,4 15,7 3 2 6 3 E 1016,7 13 0 0,0
17.10.2018 22:00:00 14,0 11,7 12,0 15,3 15,7 4 2 6 4 ESE 1016,4 13 0 0,0
17.10.2018 21:00:00 15,0 11,9 13,0 15,3 15,7 3 2 6 4 ESE 1015,9 18 0 0,0
17.10.2018 20:00:00 15,6 12,0 14,5 15,2 15,7 4 2 8 4 SE 1015,4 19 0 0,0
17.10.2018 19:00:00 16,8 11,5 15,6 15,1 15,7 5 3 6 3 ESE 1014,7 15 0 0,0
17.10.2018 18:00:00 17,6 10,9 17,4 15,1 15,7 3 1 17 9 SSE 1014,3 13 0 0,0
17.10.2018 17:00:00 18,6 12,6 19,6 15,0 15,7 11 6 15 8 SSW 1014,1 19 0 0,0
17.10.2018 16:00:00 20,2 8,8 20,6 14,9 15,7 3 2 12 6 WSW 1013,9 39 0 0,0
17.10.2018 15:00:00 20,9 7,8 25,4 14,9 15,7 5 3 13 7 SW 1013,8 20 46 0,0
17.10.2018 14:00:00 20,9 9,2 24,4 14,9 15,7 4 2 10 6 SE 1014,5 18 36 0,0
17.10.2018 13:00:00 19,5 11,0 24,4 14,9 15,7 5 3 10 5 WNW 1015,7 40 60 0,0
17.10.2018 12:00:00 17,0 10,4 22,8 15,0 15,7 4 2 8 4 NW 1017,0 20 60 0,0
17.10.2018 11:00:00 15,1 9,7 17,7 15,1 15,8 3 2 5 3 NNE 1018,1 19 60 0,0
17.10.2018 10:00:00 12,2 10,3 9,8 15,1 15,7 0 0 5 3 N 1018,9 15 60 0,2
17.10.2018 09:00:00 8,7 8,2 5,1 15,2 15,8 3 2 8 5 E 1019,7 7 15 0,0
17.10.2018 08:00:00 7,8 7,2 4,9 15,2 15,7 6 3 8 4 ESE 1019,9 5 0 0,0
17.10.2018 07:00:00 8,7 8,1 4,3 15,2 15,7 2 1 7 4 NNE 1019,6 1,7 0 0,0
17.10.2018 06:00:00 9,1 8,3 5,2 15,3 15,7 4 2 8 4 E 1019,5 0,3 0 0,0
17.10.2018 05:00:00 10,2 9,1 7,2 15,3 15,7 3 2 9 5 E 1019,4 0,2 0 0,0
17.10.2018 04:00:00 11,1 10,0 7,9 15,3 15,7 3 2 5 3 ENE 1019,4 14 0 0,0
17.10.2018 03:00:00 11,6 10,0 10,0 15,3 15,7 0 0 2 1 N 1019,6 17 0 0,0
17.10.2018 02:00:00 12,9 10,4 11,1 15,3 15,7 2 1 7 4 E 1019,6 23 0 0,0
17.10.2018 01:00:00 12,8 10,7 11,3 15,3 15,7 4 2 8 4 E 1020,1 19 0 0,0
17.10.2018 00:00:00 13,2 10,9 12,5 15,3 15,8 6 4 8 5 E 1020,2 17 0 0,0
16.10.2018 23:00:00 13,6 11,6 12,6 15,3 15,7 6 3 10 5 NE 1020,2 15 0 0,0
16.10.2018 22:00:00 13,5 11,4 12,3 15,3 15,7 6 3 7 4 SE 1020,0 12 0 0,0
16.10.2018 21:00:00 13,9 11,2 12,4 15,2 15,7 0 0 6 3 N 1019,6 16 0 0,0
16.10.2018 20:00:00 14,4 10,8 12,3 15,2 15,8 3 2 5 3 S 1019,2 19 0 0,0
16.10.2018 19:00:00 15,6 11,0 14,0 15,1 15,7 3 2 5 3 WSW 1018,3 19 20 0,0
16.10.2018 18:00:00 16,5 10,8 16,8 15,1 15,7 3 1 11 6 SSW 1017,9 20 0 0,0
16.10.2018 17:00:00 16,6 10,7 16,8 15,1 15,8 8 4 21 11 SSE 1017,8 20 0 0,0
16.10.2018 16:00:00 17,7 10,6 18,4 15,1 15,7 13 7 22 12 SE 1017,4 32 1 0,0
16.10.2018 15:00:00 16,9 10,7 17,0 15,1 15,8 14 8 23 13 SE 1017,6 42 0 0,0
16.10.2018 14:00:00 17,1 10,9 18,2 15,1 15,8 15 8 27 15 SE 1017,4 50 1 0,0
16.10.2018 13:00:00 17,4 10,5 18,9 15,1 15,7 11 6 33 18 SE 1017,6 55 25 0,0
16.10.2018 12:00:00 16,7 11,0 16,4 15,1 15,7 11 6 24 13 SSE 1017,5 57 5 0,0
16.10.2018 11:00:00 15,0 11,0 15,0 15,2 15,7 5 3 12 6 SSE 1017,6 17 0 0,0
16.10.2018 10:00:00 14,1 9,9 12,3 15,2 15,7 8 4 18 10 SE 1017,1 31 16 0,0
16.10.2018 09:00:00 12,7 9,3 11,6 15,2 15,7 5 3 24 13 ESE 1016,9 20 1 0,0
16.10.2018 08:00:00 12,9 9,3 11,3 15,3 15,7 14 8 24 13 ESE 1016,0 34 0 0,0
16.10.2018 07:00:00 12,8 9,2 11,6 15,3 15,8 11 6 27 14 ESE 1015,4 40 0 0,0
16.10.2018 06:00:00 13,1 9,5 11,8 15,3 15,7 15 8 27 14 E 1015,0 43 0 0,0
16.10.2018 05:00:00 13,2 9,6 11,7 15,4 15,7 16 8 28 15 E 1014,6 46 0 0,0
16.10.2018 04:00:00 13,3 10,1 11,3 15,4 15,8 11 6 24 13 ESE 1014,2 60 0 0,0
16.10.2018 03:00:00 12,9 10,6 11,5 15,5 15,8 13 7 27 15 ESE 1014,6 17 0 0,0
16.10.2018 02:00:00 12,7 10,4 10,9 15,5 15,7 15 8 25 14 ESE 1014,5 60 0 0,0
16.10.2018 01:00:00 12,4 11,0 10,2 15,5 15,7 9 5 15 8 ESE 1014,5 60 0 0,0
16.10.2018 00:00:00 11,9 10,6 10,3 15,6 15,8 6 3 14 8 SE 1014,6 20 0 0,2
15.10.2018 23:00:00 12,4 11,1 11,5 15,6 15,7 9 5 22 12 SE 1014,2 17 0 0,8
15.10.2018 22:00:00 12,2 10,8 11,2 15,6 15,8 7 4 33 18 SSE 1013,3 18 0 0,4
15.10.2018 21:00:00 13,8 9,8 11,6 15,7 15,8 14 8 32 17 ESE 1012,2 44 0 0,2
15.10.2018 20:00:00 13,2 10,4 11,6 15,7 15,8 16 8 31 17 SE 1011,6 12 0 0,2
15.10.2018 19:00:00 12,8 11,0 11,9 15,7 15,7 12 7 24 13 SE 1011,1 11 0 1,2
15.10.2018 18:00:00 14,2 10,4 12,6 15,7 15,8 19 10 47 26 ESE 1010,4 19 0 0,0
15.10.2018 17:00:00 15,5 9,4 12,7 15,7 15,7 26 14 50 27 SE 1009,3 14 0 0,2
15.10.2018 16:00:00 15,4 9,3 12,4 15,8 15,8 21 12 40 21 ESE 1008,5 50 0 0,6
15.10.2018 15:00:00 15,4 9,7 13,0 15,8 15,8 23 13 59 32 SE 1008,6 15 0 0,0
15.10.2018 14:00:00 15,6 9,7 13,3 15,9 15,8 26 14 64 35 SE 1008,2 20 0 0,2
15.10.2018 13:00:00 15,4 9,7 12,5 15,9 15,8 27 15 49 26 ESE 1007,9 41 0 0,6
15.10.2018 12:00:00 14,7 10,7 12,7 15,9 15,8 21 11 50 27 SE 1008,2 18 0 1,4
15.10.2018 11:00:00 16,2 9,4 13,8 16,0 15,8 31 17 70 38 SE 1007,5 20 0 0,0
15.10.2018 10:00:00 16,5 9,4 - - - 37 20 65 35 SE 1006,6 40 - 0,0
15.10.2018 09:00:00 16,2 9,4 14,7 16,1 15,8 27 15 56 30 ESE 1005,9 20 0 0,0
15.10.2018 08:00:00 15,4 9,1 13,1 16,1 15,8 27 15 46 25 ESE 1005,8 37 0 0,2
15.10.2018 07:00:00 15,5 8,7 14,7 16,1 15,8 27 15 61 33 ESE 1005,9 38 0 0,0
15.10.2018 06:00:00 15,5 9,2 14,2 16,2 15,8 29 16 53 29 SE 1006,8 41 0 0,0
15.10.2018 05:00:00 15,4 9,7 14,5 16,2 15,8 26 14 45 25 ESE 1006,8 20 0 0,0
15.10.2018 04:00:00 15,4 9,5 14,1 16,2 15,7 25 14 48 26 ESE 1007,2 42 0 0,0
15.10.2018 03:00:00 14,9 9,0 13,8 16,3 15,8 22 12 37 20 ESE 1008,2 41 0 0,0
15.10.2018 02:00:00 14,8 10,2 14,0 16,3 15,8 24 13 51 28 SE 1008,9 41 0 0,0
15.10.2018 01:00:00 15,3 11,1 13,4 16,3 15,7 27 15 61 33 SE 1008,7 43 0 0,0
15.10.2018 00:00:00 14,8 11,9 13,3 16,3 15,8 21 11 51 27 SSE 1009,4 20 0 0,0
14.10.2018 23:00:00 15,5 11,9 13,2 16,3 15,8 28 15 52 28 SSE 1009,5 42 0 0,0
14.10.2018 22:00:00 15,2 11,8 13,0 16,3 15,8 23 12 49 26 SE 1009,1 41 0 0,8
14.10.2018 21:00:00 16,0 10,7 15,4 16,3 15,8 29 16 80 43 SE 1008,1 46 0 0,0

tt = Température de l'air
td = dewpoint
tt 5cm = Température de l'air 5cm
tt -20cm = Température de l'air -20cm
tt -100cm = Température de l'air -100cm
ff = Vitesse du vent
fx = gusts
dd = Direction du vent
ppp = reduced air pressure
vv = visibility
sd = Ensoleillement
rr = Quantités de précipitations

stations d'obs. à proximité